Regional Weather Roundup
Issued by NWS

Home | Current Version | Previous Version | Graphics & Text | Print | Product List | Glossary On
Versions: 1 2 3 4 5 6 7 8 9 10 11 12 13 14 15 16 17 18 19 20 21 22 23 24 25 26 27 28 29 30 31 32 33 34 35 36 37 38 39 40 41 42 43 44 45 46 47 48 49 50
000
ASUS43 KLMK 041202
RWRKY
KENTUCKY REGIONAL WEATHER ROUNDUP
NATIONAL WEATHER SERVICE LOUISVILLE KY
700 AM EST SUN DEC 04 2016

NOTE "FAIR" INDICATES FEW OR NO CLOUDS BELOW 12,000 FEET
WITH NO SIGNIFICANT WEATHER AND/OR OBSTRUCTIONS TO VISIBILITY.

KYZ001>023-026-027-061>063-070>075-041300-
WESTERN AND SOUTH CENTRAL KENTUCKY

CITY           SKY/WX    TMP DP  RH WIND       PRES   REMARKS
PADUCAH        CLOUDY    40  36  86 E9        30.07F FOG     WCI  34
HENDERSON      CLOUDY    39  32  75 E8        30.12F WCI  34
OWENSBORO      LGT RAIN  40  36  86 E8        30.13F WCI  34
HOPKINSVILLE   CLOUDY    39  39 100 E8        30.08F FOG     WCI  34
BOWLING GREEN  CLOUDY    40  38  93 E3        30.15S FOG
GLASGOW        NOT AVBL
$$

KYZ024-025-028>034-038-045-046-053-041300-
NORTH CENTRAL KENTUCKY

CITY           SKY/WX    TMP DP  RH WIND       PRES   REMARKS
LOUISVILLE/SDF DRIZZLE   41  30  65 E8        30.16F
LOUISVILLE/LOU CLOUDY    41  30  65 E5        30.17F
FORT KNOX      CLOUDY    37  34  89 NE8       30.13F WCI  31
$$

KYZ035>037-039>044-047>052-055>060-089>105-041300-
NORTHEAST KENTUCKY

CITY           SKY/WX    TMP DP  RH WIND       PRES   REMARKS
LEXINGTON      CLOUDY    39  29  67 E6        30.18S WCI  35
COVINGTON      CLOUDY    37  30  75 E6        30.20S WCI  32
FRANKFORT      CLOUDY    39  30  70 E5        30.17S
$$

KYZ054-064>069-076>088-106>120-041300-
SOUTHEAST KENTUCKY

CITY           SKY/WX    TMP DP  RH WIND       PRES   REMARKS
JACKSON        CLOUDY    36  29  75 VRB3      30.17S
LONDON         LGT RAIN  37  33  85 CALM      30.16F
SOMERSET       DRIZZLE   36  36 100 SE6       30.16F WCI  31
MIDDLESBORO    LGT RAIN  38  37  97 CALM      30.20S
MONTICELLO     LGT RAIN  39  37  92 SE3       30.16F
$$





USA.gov is the U.S. government's official web portal to all federal, state and local government web resources and services.